Weather in Arctic Village

United States     68°07′32″N   145°32′41″W
В апреле 2022 года жителям России запретили посещать сайт meteo.paraplan.net по решению Генеральной прокуратуры. Аудитория сайта уменьшилась в 10 раз. Владельцы сайта не видят смысла в поддержке погодного сервера в таких условиях. Сайт будет закрыт в октябре.
temp.,
°C
wind,
m/s
gust,
m/s
humid.,
%
clouds,
%
prec.,
mm/h
press.,
hPa
HPBL,
m
4 october, tue
tue401:00−10n22895 0.0 102431
04:00−10nnw22905 0.0 102535
07:00−10nnw229218 0.0 102536
10:00−9nnw22886 0.0 102472
13:00−5nnw22815 0.0 1023181
16:00−4nnw11795 0.0 1022185
19:00−8nnw22915 0.0 102318
22:00−8n3388100 0.0 102338
5 october, wed
wed501:00−7nnw2284100 0.0 102229
04:00−6n2280100 0.0 102034
07:00−5nnw2279100 0.0 101729
10:00−4wnw1178100 0.0 101650
13:00−1wnw11716 0.0 1015132
16:00−1wsw01772 0.0 101555
19:00−5se0192100 0.0 101710
22:00−5n1192100 0.0 101814
6 october, thu
thu601:00−6nne0194100 0.0 101811
04:00−5se1194100 0.0 101679
07:00−4sse1298100 0.1 1014167
10:00−3se1298100 0.1 1014209
13:00−3sse3498100 0.1 1015256
16:00−1sse2598100 0.2 1014286
19:000se2399100 0.2 101477
22:00+1sse4897100 0.2 1013242
7 october, fri
fri701:00+1sse3699100 0.2 1012294
04:00+2sse5999100 0.5 1010405
07:00+2s61199100 0.4 1008557
10:00+2s71498100 0.6 1007946
13:00+2s61298100 0.3 1007876
16:00+2ssw5989100 0.5 1007387
19:00−2w229158 0.0 101024
22:00−4wnw11925 0.0 101312
8 october, sat
sat801:00−5nnw118911 0.0 101538
04:00−6nnw228976 0.0 101671
07:00−7nnw339054 0.0 1017100
10:00−6nnw2285100 0.0 101794
13:00−4n1174100 0.0 1015154
16:00−3n1170100 0.0 1012148
19:00−4n2276100 0.0 101141
22:00